Temperature
19 20 21 21 21 19 18 17 17 18 17 18 17 17 18 18 19 18 18 18 17 17 16 15 14 13 13 12 11 11 10 10 9 9 9 8 8 8 8 8 8 8 8 8
21 21 21 21 21 21 20 19 18 19 18 17 17 18 18 18 18 18 18 18 17 16 15 14 14 13 12 11 11 10 10 9 9 9 8 8 8 8 8 8 8 8 8 8
19 20 21 21 21 21 21 20 18 19 18 17 16 16 18 18 19 19 18 18 17 16 15 14 13 12 12 11 10 10 9 9 9 8 8 8 8 8 8 8 8 8 8 8
17 20 21 20 19 20 20 20 18 18 18 16 17 19 19 19 19 19 18 17 16 15 14 14 13 12 11 11 10 10 9 9 9 8 8 8 8 8 8 8 8 8 8 7
16 19 20 20 20 19 20 20 19 18 17 17 17 17 18 19 19 18 18 17 16 15 14 13 12 12 11 10 10 9 9 9 8 8 8 8 8 8 8 8 7 7 7 7
16 19 19 20 20 20 20 20 19 18 16 16 16 15 16 20 19 18 17 17 16 15 14 13 12 11 11 10 10 9 9 9 8 8 8 8 8 8 8 7 7 7 7 7
16 18 18 19 20 20 20 19 21 20 19 17 17 18 20 20 19 18 17 16 15 14 14 13 12 11 11 10 9 9 9 9 8 8 8 8 8 8 7 7 7 7 7 7
15 18 18 20 19 19 20 22 23 22 21 21 21 21 20 20 19 18 17 16 15 14 14 13 12 11 11 10 9 9 9 9 8 8 8 8 8 8 7 7 7 7 7 7
16 18 19 20 21 23 23 23 23 23 22 22 21 21 20 19 19 18 17 16 15 14 14 13 12 11 11 10 9 9 9 9 8 8 8 8 8 8 7 7 7 7 7 7
16 17 20 21 22 23 23 24 24 23 23 22 21 21 20 19 19 18 17 16 15 14 14 13 12 11 10 10 9 9 9 9 9 8 8 8 8 8 7 7 7 7 7 7
17 17 20 23 23 24 24 23 23 23 22 22 21 21 20 19 19 18 17 16 15 14 14 13 12 11 11 10 10 9 9 9 9 8 8 8 8 8 7 7 7 7 7 6
17 19 18 21 23 23 23 23 23 23 22 22 21 21 20 19 19 18 17 16 15 14 14 13 12 11 11 10 10 9 9 9 9 8 8 8 8 8 8 7 7 7 7 7
19 20 20 21 22 23 23 23 23 22 22 22 21 20 20 19 18 17 17 16 15 14 14 13 12 12 11 10 10 9 9 9 8 8 8 8 8 8 8 8 8 7 7 7
19 19 19 21 21 22 22 22 22 22 21 21 21 20 19 19 18 17 17 16 15 14 13 13 12 12 11 10 10 9 9 9 8 8 8 8 8 7 7 7 7 8 8 7
18 18 18 19 20 21 21 21 21 20 20 20 20 19 19 18 18 17 16 15 15 14 13 13 12 12 11 10 10 9 9 9 9 8 8 8 8 8 8 8 8 8 8 7
16 17 18 18 18 19 19 19 19 19 19 19 19 19 18 18 17 16 16 15 14 14 13 13 12 12 11 11 10 9 9 9 8 8 8 8 8 8 8 8 8 8 8 7
15 15 16 16 16 17 17 17 18 18 18 18 18 18 17 17 17 16 16 15 14 14 13 13 12 11 11 10 10 9 9 9 9 8 8 8 8 8 8 8 8 8 8 8
14 14 15 15 15 16 16 16 17 17 17 17 17 17 17 16 16 16 15 15 14 14 13 13 12 11 11 10 10 9 9 9 9 9 8 8 8 8 8 8 8 8 8 8
14 14 14 15 15 15 15 15 16 16 16 16 16 16 16 15 15 15 15 14 14 13 13 13 12 11 11 10 10 9 9 9 9 9 8 8 9 8 8 8 8 8 8 8
13 14 14 14 14 14 14 15 15 15 15 15 15 14 14 15 14 14 14 14 14 13 13 12 12 11 11 10 10 9 9 9 8 8 8 9 9 9 8 8 8 8 8 8
13 13 13 13 13 13 13 14 14 14 14 14 14 14 14 14 14 13 13 13 13 13 12 12 11 11 11 10 10 9 9 9 8 8 8 8 8 8 8 8 8 8 8 8
12 12 12 12 13 13 13 13 13 13 13 13 13 13 13 13 13 13 13 13 13 12 12 12 11 11 10 10 9 9 9 8 8 8 8 8 8 8 8 8 8 8 8 8
12 12 12 12 12 12 12 12 12 12 12 12 12 12 12 12 12 12 12 12 12 12 11 11 11 10 10 10 9 9 8 8 8 8 8 8 8 8 8 8 8 8 8 8
11 11 11 11 11 11 11 11 11 11 11 11 11 11 11 11 12 12 12 11 11 11 11 11 10 10 9 9 9 9 8 8 8 8 8 8 8 8 8 8 8 8 8 8
10 10 10 10 10 11 11 11 11 11 11 11 11 11 11 11 11 11 11 11 11 11 10 10 10 9 9 9 8 8 8 8 8 8 8 8 8 8 8 8 8 8 8 8
10 10 10 10 10 10 10 10 10 10 10 10 10 10 10 10 10 10 10 10 10 10 9 9 9 9 8 8 8 7 7 7 7 7 7 8 8 8 8 8 8 8 8 8
9 9 9 9 9 9 9 9 9 9 9 9 9 9 9 9 9 9 9 9 9 9 8 8 8 8 8 7 7 7 7 7 7 7 7 7 7 7 8 8 8 8 8 8
Wind_Speed
7 6 4 5 6 7 7 8 8 8 8 10 9 8 6 5 6 5 5 5 5 5 4 4 4 5 5 5 5 4 5 6 7 7 7 7 8 8 8 8 9 8 9 10
3 3 4 5 7 5 6 5 6 4 7 7 4 5 5 7 8 7 7 7 7 6 5 5 6 5 5 6 5 4 5 7 7 7 7 8 8 9 9 9 9 9 9 10
4 5 3 5 5 5 5 5 7 8 8 4 5 8 9 9 9 9 9 8 8 7 7 7 6 5 6 6 5 5 6 7 7 8 8 9 9 9 9 9 9 10 10 10
2 2 4 8 4 5 4 5 6 6 5 7 8 5 5 8 10 10 9 8 8 7 6 5 5 5 5 5 5 6 7 8 8 8 9 9 9 10 10 9 9 9 10 10
4 2 6 8 3 6 6 5 6 7 6 4 4 4 3 7 9 10 9 8 7 6 5 5 6 5 5 5 6 6 7 8 9 9 9 10 10 10 9 9 10 9 9 10
5 4 6 9 4 5 5 5 7 9 9 8 8 3 7 8 9 10 9 6 6 5 4 5 6 4 4 6 6 7 8 9 9 9 9 10 11 10 9 8 10 10 10 10
5 5 8 8 4 7 4 9 7 11 10 11 11 10 6 5 8 9 8 7 6 5 5 6 5 3 5 6 7 8 8 8 9 9 9 10 9 8 9 9 9 9 10 9
5 3 8 4 9 10 11 4 6 11 11 13 12 8 6 6 8 8 7 7 6 6 6 5 4 3 6 7 8 7 7 8 9 9 8 8 9 9 9 8 9 9 8 9
8 8 6 6 9 7 4 5 7 10 10 13 11 9 8 8 8 8 9 7 6 6 6 6 5 5 7 7 7 7 7 9 9 9 9 8 8 9 9 7 7 7 7 8
4 8 7 7 7 6 7 8 7 9 10 11 11 11 10 8 8 8 8 7 6 6 6 6 6 6 7 7 6 6 8 9 8 9 9 9 7 7 7 7 7 7 7 8
5 8 8 7 6 7 6 5 5 6 8 11 12 10 10 9 9 9 8 6 6 7 8 8 6 6 6 6 5 6 8 8 8 8 8 8 8 7 8 7 7 8 7 7
7 8 5 8 7 4 6 8 9 9 8 7 10 10 9 9 8 8 8 6 6 7 8 8 6 7 6 5 4 5 7 8 7 7 7 7 8 9 9 9 11 11 11 10
7 6 6 8 7 5 7 8 8 9 10 8 8 8 8 7 6 6 7 7 9 9 8 7 6 7 6 5 4 5 7 7 7 7 7 7 7 8 9 10 9 9 10 10
7 5 5 5 6 5 4 4 4 4 3 4 5 5 5 5 5 7 8 9 8 7 7 7 7 7 6 4 4 6 7 8 7 6 7 7 7 7 7 8 9 8 7 9
8 3 2 5 7 6 3 2 3 1 1 2 3 5 6 7 8 9 8 6 5 6 7 7 7 8 5 4 5 6 6 6 6 6 6 6 7 7 7 7 7 8 8 7
8 9 10 11 11 9 8 5 2 1 1 2 3 5 7 7 7 6 5 5 6 7 8 7 8 7 4 4 5 5 6 9 8 6 6 6 6 6 7 7 7 8 8 7
11 12 11 11 11 9 8 6 4 3 2 2 4 4 5 5 4 6 7 7 8 8 7 7 7 5 4 4 4 5 5 7 9 7 6 6 6 6 7 7 7 8 7 7
7 7 7 7 8 9 9 9 8 7 4 4 3 2 4 6 8 9 8 6 5 7 8 8 7 5 5 4 4 4 5 5 5 5 6 6 6 6 6 6 7 8 8 7
9 10 10 10 9 8 8 8 7 6 5 3 2 4 6 7 7 7 5 5 7 9 8 7 8 7 6 6 5 4 4 5 5 5 5 7 7 6 6 6 7 7 7 7
10 10 10 10 10 8 8 8 7 6 6 4 4 5 6 7 6 6 5 7 9 8 6 5 6 6 5 5 5 3 4 5 5 5 5 5 6 6 6 7 7 7 7 6
9 9 10 9 9 8 7 7 7 7 7 6 5 6 8 8 6 5 5 8 9 7 6 7 6 5 4 4 4 3 3 4 4 4 5 5 6 6 6 6 6 6 7 6
6 7 8 8 8 8 7 6 5 6 7 7 7 7 7 8 7 6 7 9 8 6 6 5 5 6 6 4 3 3 3 3 4 4 4 5 5 6 6 6 6 6 6 6
6 6 7 7 7 7 8 6 6 6 6 7 8 8 8 8 6 6 8 6 5 6 5 5 6 7 7 4 2 3 3 3 3 4 4 4 5 5 5 6 6 6 6 6
7 7 8 7 6 6 7 7 7 6 7 7 7 7 7 6 6 6 6 7 5 5 5 6 7 7 5 3 2 2 2 2 3 3 4 4 4 4 5 5 5 6 6 7
7 7 7 7 6 6 7 7 7 7 7 7 8 8 6 5 5 7 6 5 4 4 3 4 6 6 4 2 2 2 1 1 2 3 3 4 4 4 5 5 5 6 6 6
7 7 7 7 7 6 5 4 4 5 5 6 7 7 7 6 5 5 4 3 2 3 2 2 3 3 2 2 1 1 1 1 2 2 3 3 4 4 5 5 6 5 5 5
7 6 6 6 6 5 4 4 4 5 5 6 7 7 7 7 6 5 4 2 1 1 1 1 2 2 2 1 1 1 1 1 2 2 3 3 3 4 5 5 4 4 5 5
Wind_Direction
234 245 232 243 244 187 189 192 189 228 226 241 223 211 204 183 169 172 196 217 228 239 255 272 279 281 279 283 288 289 291 290 285 287 288 290 291 290 289 288 288 283 285 284
285 281 258 255 257 210 200 193 210 236 253 247 203 157 171 179 180 198 221 234 244 252 259 263 264 270 279 282 285 287 285 284 287 291 294 293 293 292 292 291 289 287 284 284
258 305 360 281 249 207 204 198 178 206 234 184 176 192 196 194 197 210 225 236 243 250 250 253 256 260 266 272 283 288 285 287 290 293 295 294 296 297 293 291 288 289 287 284
164 45 253 252 264 203 195 228 209 221 225 196 202 201 205 195 198 216 227 234 240 242 246 250 250 258 266 275 284 287 289 290 292 295 295 296 296 294 291 289 287 286 285 284
132 182 278 291 239 167 166 251 216 206 207 167 114 72 298 222 204 213 220 223 229 231 231 242 256 263 273 282 288 290 289 291 293 295 296 297 296 294 292 291 292 289 286 285
137 162 233 252 236 157 110 282 228 189 186 161 129 155 254 228 204 216 222 220 226 229 225 245 258 262 269 280 288 285 285 290 293 294 292 292 290 291 290 289 289 293 291 286
161 201 254 251 171 131 161 243 214 187 183 168 181 202 223 201 196 206 213 221 221 219 227 243 255 255 266 278 278 277 285 292 296 294 291 288 286 287 291 293 295 295 294 293
147 185 257 218 148 179 213 222 185 186 184 187 207 219 221 206 205 207 214 223 215 216 239 253 251 238 262 271 272 283 291 295 297 297 296 297 294 295 294 294 297 299 300 303
189 214 245 219 211 231 190 199 200 190 194 193 202 216 214 212 212 215 218 219 212 212 238 258 250 226 250 264 278 289 295 297 299 302 301 297 295 298 301 298 296 298 299 300
249 270 265 257 247 239 209 212 209 192 187 182 198 209 207 209 213 218 219 217 208 206 230 252 255 244 243 264 279 288 295 299 302 305 307 308 303 295 294 297 297 297 297 296
269 281 305 302 255 235 218 211 203 193 188 190 193 201 201 207 213 214 215 213 204 211 228 246 256 257 259 262 273 286 293 298 302 303 303 308 308 297 290 281 272 277 284 282
239 247 228 265 274 239 209 212 203 193 199 200 194 198 197 206 209 208 212 207 209 220 232 245 250 258 265 263 261 277 293 300 303 306 308 309 312 313 294 278 281 272 259 260
251 270 242 264 286 253 223 224 208 198 200 201 200 195 193 199 203 204 211 211 216 223 231 240 247 258 264 263 265 272 281 292 298 301 306 310 312 313 316 316 306 292 281 276
283 282 287 296 290 286 250 236 204 199 199 180 177 174 174 185 195 207 218 220 219 223 234 240 247 256 260 261 270 278 285 291 295 294 298 301 303 302 301 306 315 316 307 294
350 360 312 334 355 4 14 60 88 104 143 162 156 167 180 193 209 221 225 216 211 226 241 243 249 257 257 256 270 281 290 294 296 297 298 297 298 299 300 302 303 306 310 312
353 24 28 26 19 18 27 36 45 281 218 191 185 202 205 207 217 229 223 197 200 228 239 240 248 253 248 250 270 282 288 297 305 301 304 307 306 304 306 307 309 311 310 309
38 25 16 16 13 15 19 15 3 344 331 261 229 217 203 204 226 241 237 221 218 231 236 234 244 250 243 246 260 276 288 299 308 307 305 305 306 304 303 303 304 308 307 300
45 36 27 22 14 10 10 12 14 11 353 310 279 223 216 220 232 242 244 234 233 250 248 240 237 238 242 248 258 267 278 287 294 297 303 306 306 304 303 303 306 308 311 310
29 27 24 24 18 13 8 5 1 357 350 344 309 264 253 249 247 251 247 227 232 250 254 237 228 227 240 252 264 262 274 286 295 299 304 307 310 310 310 311 313 314 313 313
21 17 15 11 9 6 360 353 348 349 345 339 322 303 289 277 269 264 248 240 240 238 228 214 213 223 235 249 263 260 269 280 291 301 308 312 313 312 314 316 317 318 319 317
5 3 1 358 352 349 349 348 347 339 331 324 310 291 284 286 282 265 252 262 261 232 219 211 209 220 224 233 252 254 265 278 288 298 307 313 314 315 318 321 322 324 323 322
346 346 343 341 341 336 332 332 331 328 327 325 319 310 304 298 291 275 254 253 263 223 210 209 212 220 219 221 227 244 262 278 292 300 307 313 313 315 320 325 326 327 328 328
325 323 323 324 320 311 314 318 321 319 314 311 310 308 300 292 286 277 284 275 262 224 210 212 211 213 210 204 215 237 257 280 298 307 312 314 312 313 318 324 327 332 336 337
316 314 310 309 314 319 317 311 313 310 306 303 299 298 297 301 303 286 279 282 262 221 210 204 198 197 190 194 210 229 253 283 302 312 316 316 316 319 324 328 331 335 340 343
301 301 301 309 312 302 291 297 308 313 319 318 314 313 306 284 282 300 304 292 254 207 207 192 183 182 181 191 208 226 256 292 310 317 321 322 323 323 327 331 335 337 345 349
293 293 286 279 274 276 282 287 293 298 304 311 314 316 317 315 309 313 311 297 250 202 192 173 164 167 175 181 191 225 287 313 326 332 331 327 327 329 331 334 339 343 347 352
293 291 290 294 291 281 277 271 275 288 293 295 300 306 311 314 316 320 316 305 273 207 160 135 133 143 144 141 125 81 12 343 345 343 340 337 336 333 334 336 339 344 350 355
Height
1503 1499 1499 1498 1497 1501 1506 1509 1516 1509 1507 1498 1495 1495 1496 1498 1501 1502 1504 1505 1505 1505 1505 1504 1502 1501 1499 1497 1495 1492 1490 1487 1484 1481 1478 1475 1472 1469 1466 1463 1461 1458 1455 1453
1500 1495 1496 1497 1493 1494 1497 1499 1502 1501 1500 1491 1491 1493 1495 1497 1499 1500 1502 1503 1503 1503 1502 1501 1500 1498 1496 1494 1491 1489 1486 1483 1480 1477 1474 1471 1467 1464 1461 1458 1455 1453 1450 1448
1508 1500 1496 1502 1491 1490 1491 1491 1495 1499 1493 1489 1491 1491 1492 1494 1497 1498 1499 1500 1500 1500 1499 1498 1497 1495 1492 1490 1488 1485 1482 1479 1476 1473 1469 1466 1462 1459 1456 1453 1450 1447 1445 1442
1510 1505 1511 1499 1484 1484 1487 1487 1487 1487 1487 1487 1487 1489 1491 1493 1494 1496 1497 1497 1497 1497 1496 1495 1493 1491 1489 1486 1484 1481 1478 1475 1472 1468 1464 1461 1458 1455 1452 1448 1445 1442 1439 1437
1514 1512 1506 1491 1483 1483 1487 1487 1482 1484 1484 1486 1487 1489 1490 1490 1491 1493 1494 1494 1494 1494 1493 1491 1490 1487 1485 1483 1480 1477 1474 1471 1467 1464 1460 1457 1454 1450 1447 1444 1441 1437 1434 1431
1511 1510 1511 1492 1478 1478 1484 1489 1478 1479 1481 1484 1487 1494 1489 1486 1488 1489 1490 1491 1491 1490 1489 1488 1486 1484 1481 1479 1476 1473 1470 1467 1463 1460 1456 1453 1450 1446 1443 1440 1436 1432 1429 1426
1507 1507 1498 1478 1475 1479 1494 1489 1472 1474 1476 1480 1482 1483 1483 1484 1485 1486 1487 1488 1487 1487 1485 1484 1483 1480 1478 1475 1472 1469 1466 1462 1459 1456 1452 1449 1446 1442 1439 1435 1432 1428 1424 1421
1506 1506 1498 1473 1475 1478 1475 1467 1467 1469 1472 1475 1476 1478 1480 1481 1482 1483 1484 1484 1484 1483 1482 1481 1479 1477 1474 1471 1468 1465 1462 1459 1455 1452 1449 1445 1442 1438 1435 1431 1427 1423 1420 1416
1490 1487 1472 1469 1467 1465 1466 1465 1465 1467 1469 1471 1473 1475 1477 1478 1479 1480 1480 1480 1480 1480 1479 1477 1475 1472 1470 1467 1464 1461 1458 1455 1451 1448 1445 1442 1438 1434 1430 1427 1423 1419 1415 1412
1481 1473 1467 1465 1464 1463 1463 1463 1463 1464 1466 1468 1470 1471 1473 1475 1476 1476 1476 1476 1476 1476 1474 1473 1471 1469 1466 1463 1461 1458 1454 1451 1448 1444 1441 1438 1434 1431 1427 1423 1419 1415 1412 1408
1477 1469 1464 1462 1460 1460 1460 1460 1461 1462 1463 1464 1466 1468 1469 1471 1472 1472 1473 1473 1473 1472 1471 1469 1467 1465 1462 1460 1457 1454 1451 1448 1444 1441 1437 1434 1430 1427 1423 1420 1416 1412 1408 1405
1474 1465 1465 1461 1459 1458 1457 1457 1458 1459 1460 1461 1463 1464 1466 1467 1468 1469 1469 1470 1469 1468 1467 1465 1463 1461 1459 1456 1453 1450 1447 1444 1441 1438 1434 1430 1427 1424 1420 1417 1413 1409 1406 1402
1465 1462 1461 1458 1457 1455 1454 1454 1455 1456 1457 1458 1459 1461 1463 1464 1465 1466 1467 1466 1465 1464 1463 1461 1459 1457 1455 1453 1450 1447 1443 1440 1437 1434 1431 1428 1424 1420 1416 1414 1411 1407 1403 1400
1461 1459 1456 1455 1454 1452 1451 1452 1453 1453 1455 1456 1457 1459 1460 1462 1463 1463 1463 1463 1462 1461 1460 1458 1456 1454 1452 1449 1446 1443 1440 1437 1434 1431 1428 1425 1422 1419 1415 1411 1407 1404 1401 1397
1459 1457 1456 1454 1452 1450 1450 1450 1450 1451 1452 1453 1455 1456 1458 1459 1460 1460 1460 1460 1459 1458 1456 1455 1453 1451 1448 1446 1443 1440 1437 1434 1432 1429 1426 1423 1420 1417 1413 1410 1406 1402 1398 1395
1460 1457 1455 1453 1452 1450 1449 1449 1449 1450 1451 1452 1453 1454 1455 1456 1458 1458 1457 1456 1455 1454 1453 1451 1449 1447 1445 1443 1440 1437 1434 1432 1429 1426 1423 1421 1418 1415 1411 1408 1404 1400 1396 1393
1460 1458 1456 1455 1454 1453 1452 1451 1450 1450 1451 1451 1452 1452 1453 1453 1453 1453 1453 1452 1451 1450 1449 1447 1446 1444 1442 1439 1436 1434 1431 1429 1426 1424 1421 1418 1415 1412 1409 1406 1402 1399 1395 1392
1466 1465 1463 1460 1458 1455 1454 1453 1452 1451 1451 1451 1451 1450 1450 1450 1449 1449 1449 1448 1447 1445 1444 1443 1442 1440 1438 1435 1433 1430 1428 1425 1423 1421 1418 1416 1413 1410 1407 1404 1400 1397 1394 1390
1469 1466 1464 1462 1460 1458 1456 1454 1453 1452 1451 1450 1449 1448 1447 1446 1446 1445 1444 1443 1441 1440 1439 1439 1437 1435 1433 1431 1429 1427 1424 1422 1420 1418 1416 1413 1411 1408 1405 1402 1399 1395 1392 1389
1470 1467 1465 1463 1461 1459 1457 1454 1453 1451 1450 1448 1447 1445 1444 1443 1442 1440 1439 1437 1436 1435 1434 1433 1432 1430 1429 1427 1425 1423 1421 1419 1417 1415 1413 1411 1408 1406 1403 1400 1397 1393 1390 1387
1470 1468 1466 1463 1461 1459 1457 1454 1452 1450 1449 1447 1445 1443 1441 1439 1437 1435 1433 1431 1430 1430 1428 1427 1426 1425 1424 1422 1421 1419 1417 1416 1414 1412 1410 1408 1406 1403 1401 1398 1395 1392 1389 1386
1470 1467 1465 1462 1460 1458 1455 1453 1451 1449 1447 1445 1442 1440 1437 1434 1432 1429 1427 1426 1424 1423 1422 1421 1420 1420 1419 1418 1416 1415 1414 1412 1411 1409 1407 1406 1404 1401 1399 1396 1394 1391 1388 1385
1468 1466 1463 1461 1458 1455 1453 1451 1449 1447 1444 1442 1439 1436 1433 1430 1427 1424 1421 1419 1418 1416 1416 1415 1415 1414 1414 1413 1412 1411 1410 1409 1408 1406 1405 1403 1401 1399 1397 1395 1392 1390 1387 1384
1466 1463 1460 1458 1455 1453 1450 1448 1446 1444 1441 1439 1436 1433 1429 1425 1422 1419 1416 1414 1412 1411 1410 1410 1410 1410 1409 1409 1408 1408 1407 1406 1404 1403 1402 1401 1399 1397 1396 1394 1391 1389 1386 1384
1462 1460 1457 1454 1452 1449 1447 1444 1442 1440 1438 1435 1432 1429 1426 1422 1418 1415 1412 1410 1408 1407 1406 1406 1406 1406 1405 1405 1405 1404 1403 1402 1401 1400 1399 1398 1397 1396 1394 1392 1391 1388 1386 1384
1458 1456 1453 1450 1448 1445 1443 1440 1438 1436 1434 1431 1428 1425 1421 1418 1414 1411 1408 1406 1404 1403 1402 1402 1402 1402 1402 1401 1401 1401 1400 1399 1398 1397 1397 1396 1395 1394 1393 1391 1390 1388 1386 1384
1454 1451 1448 1446 1444 1441 1439 1437 1435 1433 1430 1427 1424 1420 1417 1413 1410 1407 1404 1402 1401 1400 1399 1399 1399 1399 1398 1398 1398 1398 1397 1396 1395 1395 1394 1393 1392 1392 1391 1390 1389 1388 1386 1384